TimeEDT,TemperatureF,Dew PointF,Humidity,Sea Level PressureIn,VisibilityMPH,Wind Direction,Wind SpeedMPH,Gust SpeedMPH,PrecipitationIn,Events,Conditions,WindDirDegrees,DateUTC
12:53 AM,60.1,55.9,86,29.99,10.0,NNW,8.1,-,N/A,,Clear,340,2013-06-14 04:53:00
1:53 AM,57.9,55.0,90,30.00,10.0,North,6.9,-,N/A,,Clear,360,2013-06-14 05:53:00
2:53 AM,57.0,55.0,93,30.00,10.0,North,6.9,-,N/A,,Clear,360,2013-06-14 06:53:00
3:53 AM,57.0,54.0,89,30.00,10.0,North,6.9,-,N/A,,Clear,360,2013-06-14 07:53:00
4:53 AM,57.0,54.0,89,30.01,10.0,North,8.1,-,N/A,,Clear,10,2013-06-14 08:53:00
5:53 AM,55.0,53.1,93,30.02,10.0,North,5.8,-,N/A,,Clear,10,2013-06-14 09:53:00
6:53 AM,55.0,53.1,93,30.05,10.0,NNW,5.8,-,N/A,,Clear,340,2013-06-14 10:53:00
7:53 AM,60.1,54.0,80,30.08,10.0,NNE,6.9,-,N/A,,Clear,20,2013-06-14 11:53:00
8:53 AM,63.0,55.0,75,30.09,10.0,NE,4.6,-,N/A,,Clear,40,2013-06-14 12:53:00
9:53 AM,66.0,55.0,68,30.12,10.0,Variable,4.6,-,N/A,,Clear,0,2013-06-14 13:53:00
10:53 AM,70.0,55.9,61,30.11,10.0,NNE,5.8,-,N/A,,Clear,20,2013-06-14 14:53:00
11:53 AM,71.1,55.0,57,30.12,10.0,Variable,4.6,-,N/A,,Clear,0,2013-06-14 15:53:00
12:53 PM,73.0,54.0,51,30.10,10.0,Calm,Calm,-,N/A,,Clear,0,2013-06-14 16:53:00
1:53 PM,75.0,53.1,46,30.08,10.0,Variable,4.6,-,N/A,,Clear,0,2013-06-14 17:53:00
2:53 PM,77.0,51.1,40,30.06,10.0,Variable,4.6,-,N/A,,Clear,0,2013-06-14 18:53:00
3:53 PM,77.0,50.0,39,30.07,10.0,Calm,Calm,-,N/A,,Partly Cloudy,0,2013-06-14 19:53:00
4:53 PM,79.0,52.0,39,30.06,10.0,North,5.8,-,N/A,,Scattered Clouds,360,2013-06-14 20:53:00
5:53 PM,77.0,51.1,40,30.05,10.0,NNE,3.5,-,N/A,,Scattered Clouds,20,2013-06-14 21:53:00
6:53 PM,79.0,51.1,38,30.04,10.0,Variable,4.6,-,N/A,,Scattered Clouds,0,2013-06-14 22:53:00
7:53 PM,73.0,55.9,55,30.05,10.0,NNW,11.5,-,N/A,,Partly Cloudy,330,2013-06-14 23:53:00
8:53 PM,68.0,55.0,63,30.05,10.0,NW,3.5,-,N/A,,Partly Cloudy,310,2013-06-15 00:53:00
9:53 PM,66.0,55.0,68,30.06,10.0,Calm,Calm,-,N/A,,Clear,0,2013-06-15 01:53:00
10:53 PM,64.0,55.9,75,30.06,10.0,Calm,Calm,-,N/A,,Clear,0,2013-06-15 02:53:00
11:53 PM,60.1,55.9,86,30.05,10.0,Calm,Calm,-,N/A,,Clear,0,2013-06-15 03:53:00